,,,PA_Meas_PMT16A,,PR_Meas_QMR101_102,,RH_Meas_QMH101,,SR_Meas_QMS101,,TA_Meas_QMH101,,GenWind,,GenWind,
date,time,status,PA,status,PR,status,RH,status,SR,status,TA,status,DirAvg,status,SpdAvg,
2014-06-07, 00:00:04,VALID,1007.78,VALID,0,INVALID,109.933,VALID,0,VALID,22.7588,VALID,59,VALID,0,
2014-06-07, 00:01:04,VALID,1007.78,VALID,0,INVALID,109.895,VALID,0,VALID,22.7783,VALID,59,VALID,0,
2014-06-07, 00:02:04,VALID,1007.78,VALID,0,INVALID,109.872,VALID,0,VALID,22.7978,VALID,59,VALID,0,
2014-06-07, 00:03:04,VALID,1007.78,VALID,0,INVALID,109.925,VALID,0,VALID,22.7588,VALID,59,VALID,0,
2014-06-07, 00:04:04,VALID,1007.74,VALID,0,INVALID,109.925,VALID,0,VALID,22.7588,VALID,59,VALID,0,
2014-06-07, 00:05:04,VALID,1007.76,VALID,0,INVALID,109.872,VALID,0,VALID,22.78,VALID,59,VALID,0,
2014-06-07, 00:06:04,VALID,1007.73,VALID,0,INVALID,109.879,VALID,0,VALID,22.78,VALID,59,VALID,0,
2014-06-07, 00:07:04,VALID,1007.71,VALID,0,INVALID,109.849,VALID,0.112112,VALID,22.7588,VALID,59,VALID,0,
2014-06-07, 00:08:04,VALID,1007.72,VALID,0,INVALID,109.826,VALID,0,VALID,22.7588,VALID,59,VALID,0,
2014-06-07, 00:09:04,VALID,1007.71,VALID,0,INVALID,109.849,VALID,0,VALID,22.7588,VALID,59,VALID,0,
2014-06-07, 00:10:04,VALID,1007.68,VALID,0,INVALID,109.803,VALID,0,VALID,22.7588,VALID,59,VALID,0,
2014-06-07, 00:11:04,VALID,1007.68,VALID,0,INVALID,109.826,VALID,0,VALID,22.7588,VALID,59,VALID,0,
2014-06-07, 00:12:04,VALID,1007.63,VALID,0,INVALID,109.818,VALID,0,VALID,22.7588,VALID,59,VALID,0,
2014-06-07, 00:13:04,VALID,1007.59,VALID,0,INVALID,109.879,VALID,0,VALID,22.7394,VALID,59,VALID,0,
2014-06-07, 00:14:04,VALID,1007.6,VALID,0,INVALID,109.818,VALID,0,VALID,22.7199,VALID,59,VALID,0,
2014-06-07, 00:15:04,VALID,1007.57,VALID,0,INVALID,109.818,VALID,0,VALID,22.7199,VALID,59,VALID,0,
2014-06-07, 00:16:04,VALID,1007.56,VALID,0,INVALID,109.796,VALID,0,VALID,22.7199,VALID,59,VALID,0,
2014-06-07, 00:17:04,VALID,1007.53,VALID,0,INVALID,109.773,VALID,0,VALID,22.7394,VALID,59,VALID,0,
2014-06-07, 00:18:04,VALID,1007.56,VALID,0,INVALID,109.727,VALID,0,VALID,22.7588,VALID,59,VALID,0,
2014-06-07, 00:19:04,VALID,1007.55,VALID,0,INVALID,109.712,VALID,0,VALID,22.7978,VALID,59,VALID,0,
2014-06-07, 00:20:04,VALID,1007.53,VALID,0,INVALID,109.681,VALID,0,VALID,22.7978,VALID,59,VALID,0,
2014-06-07, 00:21:04,VALID,1007.5,VALID,0,INVALID,109.719,VALID,0,VALID,22.7766,VALID,59,VALID,0,
2014-06-07, 00:22:04,VALID,1007.52,VALID,0,INVALID,109.757,VALID,0,VALID,22.7588,VALID,59,VALID,0,
2014-06-07, 00:23:04,VALID,1007.5,VALID,0,INVALID,109.796,VALID,0,VALID,22.7394,VALID,59,VALID,0,
2014-06-07, 00:24:04,VALID,1007.47,VALID,0,INVALID,109.803,VALID,0,VALID,22.7199,VALID,59,VALID,0,
2014-06-07, 00:25:04,VALID,1007.45,VALID,0,INVALID,109.796,VALID,0,VALID,22.7004,VALID,59,VALID,0,
2014-06-07, 00:26:04,VALID,1007.42,VALID,0,INVALID,109.811,VALID,0,VALID,22.7004,VALID,59,VALID,0,
2014-06-07, 00:27:04,VALID,1007.41,VALID,0,INVALID,109.803,VALID,0,VALID,22.6809,VALID,59,VALID,0,
2014-06-07, 00:28:04,VALID,1007.39,VALID,0,INVALID,109.803,VALID,0,VALID,22.7021,VALID,59,VALID,0,
2014-06-07, 00:29:04,VALID,1007.35,VALID,0,INVALID,109.803,VALID,0,VALID,22.6614,VALID,59,VALID,0,
2014-06-07, 00:30:04,VALID,1007.35,VALID,0,INVALID,109.757,VALID,0,VALID,22.6809,VALID,59,VALID,0,
2014-06-07, 00:31:04,VALID,1007.35,VALID,0,INVALID,109.735,VALID,0,VALID,22.7216,VALID,59,VALID,0,
2014-06-07, 00:32:04,VALID,1007.36,VALID,0,INVALID,109.727,VALID,0,VALID,22.6809,VALID,59,VALID,0,
2014-06-07, 00:33:04,VALID,1007.36,VALID,0,INVALID,109.666,VALID,0,VALID,22.7199,VALID,59,VALID,0,
2014-06-07, 00:34:04,VALID,1007.33,VALID,0,INVALID,109.704,VALID,0,VALID,22.7004,VALID,59,VALID,0,
2014-06-07, 00:35:04,VALID,1007.33,VALID,0,INVALID,109.773,VALID,0,VALID,22.642,VALID,59,VALID,0,
2014-06-07, 00:36:04,VALID,1007.35,VALID,0,INVALID,109.773,VALID,0,VALID,22.642,VALID,59,VALID,0,
2014-06-07, 00:37:04,VALID,1007.34,VALID,0,INVALID,109.788,VALID,0,VALID,22.6225,VALID,59,VALID,0,
2014-06-07, 00:38:04,VALID,1007.32,VALID,0,INVALID,109.796,VALID,0,VALID,22.6225,VALID,59,VALID,0,
2014-06-07, 00:39:04,VALID,1007.32,VALID,0,INVALID,109.75,VALID,0,VALID,22.603,VALID,59,VALID,0,
2014-06-07, 00:40:04,VALID,1007.32,VALID,0,INVALID,109.773,VALID,0,VALID,22.603,VALID,59,VALID,0,
2014-06-07, 00:41:04,VALID,1007.33,VALID,0,INVALID,109.727,VALID,0,VALID,22.6225,VALID,59,VALID,0,
2014-06-07, 00:42:04,VALID,1007.31,VALID,0,INVALID,109.719,VALID,0,VALID,22.642,VALID,59,VALID,0,
2014-06-07, 00:43:04,VALID,1007.29,VALID,0,INVALID,109.704,VALID,0,VALID,22.642,VALID,59,VALID,0,
2014-06-07, 00:44:04,VALID,1007.28,VALID,0,INVALID,109.704,VALID,0,VALID,22.642,VALID,59,VALID,0,
2014-06-07, 00:45:04,VALID,1007.26,VALID,0,INVALID,109.696,VALID,0,VALID,22.642,VALID,59,VALID,0,
2014-06-07, 00:46:04,VALID,1007.26,VALID,0,INVALID,109.681,VALID,0,VALID,22.642,VALID,59,VALID,0,
2014-06-07, 00:47:04,VALID,1007.23,VALID,0,INVALID,109.666,VALID,0,VALID,22.642,VALID,59,VALID,0,
2014-06-07, 00:48:04,VALID,1007.21,VALID,0,INVALID,109.62,VALID,0,VALID,22.6614,VALID,59,VALID,0,
2014-06-07, 00:49:04,VALID,1007.21,VALID,0,INVALID,109.597,VALID,0,VALID,22.7004,VALID,59,VALID,0,
2014-06-07, 00:50:04,VALID,1007.2,VALID,0,INVALID,109.559,VALID,0,VALID,22.7004,VALID,59,VALID,0,
2014-06-07, 00:51:04,VALID,1007.21,VALID,0,INVALID,109.605,VALID,0,VALID,22.6809,VALID,59,VALID,0,
2014-06-07, 00:52:04,VALID,1007.2,VALID,0,INVALID,109.674,VALID,0,VALID,22.6614,VALID,59,VALID,0,
2014-06-07, 00:53:04,VALID,1007.16,VALID,0,INVALID,109.666,VALID,0,VALID,22.642,VALID,59,VALID,0,
2014-06-07, 00:54:04,VALID,1007.19,VALID,0,INVALID,109.651,VALID,0,VALID,22.6225,VALID,59,VALID,0,
2014-06-07, 00:55:04,VALID,1007.19,VALID,0,INVALID,109.658,VALID,0,VALID,22.642,VALID,59,VALID,0,
2014-06-07, 00:56:04,VALID,1007.22,VALID,0,INVALID,109.651,VALID,0,VALID,22.642,VALID,59,VALID,0,
2014-06-07, 00:57:04,VALID,1007.23,VALID,0,INVALID,109.658,VALID,0,VALID,22.6225,VALID,59,VALID,0,
2014-06-07, 00:58:04,VALID,1007.21,VALID,0,INVALID,109.62,VALID,0,VALID,22.6225,VALID,59,VALID,0,
2014-06-07, 00:59:04,VALID,1007.21,VALID,0,INVALID,109.658,VALID,0,VALID,22.603,VALID,59,VALID,0,
2014-06-07, 01:00:04,VALID,1007.19,VALID,0,INVALID,109.613,VALID,0.112112,VALID,22.6225,VALID,59,VALID,0,
2014-06-07, 01:01:04,VALID,1007.16,VALID,0,INVALID,109.628,VALID,0,VALID,22.6225,VALID,59,VALID,0,
2014-06-07, 01:02:04,VALID,1007.18,VALID,0,INVALID,109.643,VALID,0,VALID,22.603,VALID,59,VALID,0,
2014-06-07, 01:03:04,VALID,1007.19,VALID,0,INVALID,109.628,VALID,0.112112,VALID,22.603,VALID,59,VALID,0,
2014-06-07, 01:04:04,VALID,1007.19,VALID,0,INVALID,109.628,VALID,0,VALID,22.5835,VALID,59,VALID,0,
2014-06-07, 01:05:04,VALID,1007.22,VALID,0,INVALID,109.666,VALID,0,VALID,22.5835,VALID,59,VALID,0,
2014-06-07, 01:06:04,VALID,1007.25,VALID,0,INVALID,109.681,VALID,0,VALID,22.5446,VALID,59,VALID,0,
2014-06-07, 01:07:04,VALID,1007.23,VALID,0,INVALID,109.696,VALID,0.112112,VALID,22.5446,VALID,59,VALID,0,
2014-06-07, 01:08:04,VALID,1007.25,VALID,0,INVALID,109.681,VALID,0,VALID,22.5251,VALID,59,VALID,0,
2014-06-07, 01:09:04,VALID,1007.27,VALID,0,INVALID,109.681,VALID,0,VALID,22.5251,VALID,59,VALID,0,
2014-06-07, 01:10:04,VALID,1007.25,VALID,0,INVALID,109.666,VALID,0,VALID,22.5251,VALID,59,VALID,0,
2014-06-07, 01:11:04,VALID,1007.23,VALID,0,INVALID,109.696,VALID,0,VALID,22.5251,VALID,59,VALID,0,
2014-06-07, 01:12:04,VALID,1007.21,VALID,0,INVALID,109.628,VALID,0.112112,VALID,22.5039,VALID,59,VALID,0,
2014-06-07, 01:13:04,VALID,1007.23,VALID,0,INVALID,109.628,VALID,0,VALID,22.5251,VALID,59,VALID,0,
2014-06-07, 01:14:04,VALID,1007.22,VALID,0,INVALID,109.605,VALID,0.112112,VALID,22.5446,VALID,59,VALID,0,
2014-06-07, 01:15:04,VALID,1007.22,VALID,0,INVALID,109.643,VALID,0,VALID,22.5658,VALID,59,VALID,0,
2014-06-07, 01:16:04,VALID,1007.21,VALID,0,INVALID,109.59,VALID,0,VALID,22.5446,VALID,59,VALID,0,
2014-06-07, 01:17:04,VALID,1007.22,VALID,0,INVALID,109.567,VALID,0.112112,VALID,22.5446,VALID,59,VALID,0,
2014-06-07, 01:18:04,VALID,1007.21,VALID,0,INVALID,109.62,VALID,0,VALID,22.5251,VALID,59,VALID,0,
2014-06-07, 01:19:04,VALID,1007.19,VALID,0,INVALID,109.651,VALID,0,VALID,22.5251,VALID,59,VALID,0,
2014-06-07, 01:20:04,VALID,1007.19,VALID,0,INVALID,109.651,VALID,0,VALID,22.5446,VALID,59,VALID,0,
2014-06-07, 01:21:04,VALID,1007.17,VALID,0,INVALID,109.628,VALID,0,VALID,22.5446,VALID,59,VALID,0,
2014-06-07, 01:22:04,VALID,1007.16,VALID,0,INVALID,109.628,VALID,0,VALID,22.5251,VALID,59,VALID,0,
2014-06-07, 01:23:04,VALID,1007.13,VALID,0,INVALID,109.658,VALID,0.112112,VALID,22.5446,VALID,59,VALID,0,
2014-06-07, 01:24:04,VALID,1007.12,VALID,0,INVALID,109.574,VALID,0,VALID,22.5446,VALID,59,VALID,0,
2014-06-07, 01:25:04,VALID,1007.09,VALID,0,INVALID,109.506,VALID,0.112112,VALID,22.5835,VALID,59,VALID,0,
2014-06-07, 01:26:04,VALID,1007.07,VALID,0,INVALID,109.498,VALID,0.112112,VALID,22.603,VALID,59,VALID,0,
2014-06-07, 01:27:04,VALID,1007.06,VALID,0,INVALID,109.452,VALID,0.112112,VALID,22.6402,VALID,59,VALID,0,
2014-06-07, 01:28:04,VALID,1007.07,VALID,0,INVALID,109.43,VALID,0,VALID,22.7216,VALID,59,VALID,0,
2014-06-07, 01:29:04,VALID,1007.06,VALID,0,INVALID,109.391,VALID,0.112112,VALID,22.7376,VALID,59,VALID,0,
2014-06-07, 01:30:04,VALID,1007.09,VALID,0,INVALID,109.361,VALID,0.112112,VALID,22.7783,VALID,59,VALID,0,
2014-06-07, 01:31:04,VALID,1007.05,VALID,0,INVALID,109.353,VALID,0.112112,VALID,22.7783,VALID,59,VALID,0,
2014-06-07, 01:32:04,VALID,1007.07,VALID,0,INVALID,109.376,VALID,0.112112,VALID,22.7783,VALID,59,VALID,0,
2014-06-07, 01:33:04,VALID,1007.07,VALID,0,INVALID,109.376,VALID,0.112112,VALID,22.7571,VALID,59,VALID,0,
2014-06-07, 01:34:04,VALID,1007.02,VALID,0,INVALID,109.384,VALID,0.112112,VALID,22.7588,VALID,59,VALID,0,
2014-06-07, 01:35:04,VALID,1006.99,VALID,0,INVALID,109.384,VALID,0,VALID,22.7588,VALID,59,VALID,0,
2014-06-07, 01:36:04,VALID,1006.95,VALID,0,INVALID,109.391,VALID,0,VALID,22.78,VALID,59,VALID,0,
2014-06-07, 01:37:04,VALID,1006.89,VALID,0,INVALID,109.376,VALID,0.112112,VALID,22.7588,VALID,59,VALID,0,
2014-06-07, 01:38:04,VALID,1006.91,VALID,0,INVALID,109.407,VALID,0,VALID,22.7394,VALID,59,VALID,0,
2014-06-07, 01:39:04,VALID,1006.91,VALID,0,INVALID,109.399,VALID,0,VALID,22.7199,VALID,59,VALID,0,
2014-06-07, 01:40:04,VALID,1006.91,VALID,0,INVALID,109.399,VALID,0.112112,VALID,22.7004,VALID,59,VALID,0,
2014-06-07, 01:41:04,VALID,1006.9,VALID,0,INVALID,109.46,VALID,0,VALID,22.6809,VALID,59,VALID,0,
2014-06-07, 01:42:04,VALID,1006.91,VALID,0,INVALID,109.46,VALID,0.112112,VALID,22.6614,VALID,59,VALID,0,
2014-06-07, 01:43:04,VALID,1006.87,VALID,0,INVALID,109.491,VALID,0,VALID,22.642,VALID,59,VALID,0,
2014-06-07, 01:44:04,VALID,1006.9,VALID,0,INVALID,109.529,VALID,0,VALID,22.642,VALID,59,VALID,0,
2014-06-07, 01:45:04,VALID,1006.91,VALID,0,INVALID,109.506,VALID,0.112112,VALID,22.6225,VALID,59,VALID,0,
2014-06-07, 01:46:04,VALID,1006.89,VALID,0,INVALID,109.483,VALID,0,VALID,22.6225,VALID,59,VALID,0,
2014-06-07, 01:47:04,VALID,1006.93,VALID,0,INVALID,109.468,VALID,0,VALID,22.6225,VALID,59,VALID,0,
2014-06-07, 01:48:04,VALID,1006.92,VALID,0,INVALID,109.46,VALID,0,VALID,22.642,VALID,59,VALID,0,
2014-06-07, 01:49:04,VALID,1006.94,VALID,0,INVALID,109.422,VALID,0,VALID,22.642,VALID,59,VALID,0,
2014-06-07, 01:50:04,VALID,1006.91,VALID,0,INVALID,109.437,VALID,0,VALID,22.6614,VALID,59,VALID,0,
2014-06-07, 01:51:04,VALID,1006.9,VALID,0,INVALID,109.445,VALID,0.112112,VALID,22.642,VALID,59,VALID,0,
2014-06-07, 01:52:04,VALID,1006.87,VALID,0,INVALID,109.414,VALID,0,VALID,22.6614,VALID,59,VALID,0,
2014-06-07, 01:53:04,VALID,1006.86,VALID,0,INVALID,109.353,VALID,0.112112,VALID,22.7004,VALID,59,VALID,0,
2014-06-07, 01:54:04,VALID,1006.85,VALID,0,INVALID,109.3,VALID,0.112112,VALID,22.7199,VALID,59,VALID,0,
2014-06-07, 01:55:04,VALID,1006.88,VALID,0,INVALID,109.323,VALID,0,VALID,22.7606,VALID,59,VALID,0,
2014-06-07, 01:56:04,VALID,1006.9,VALID,0,INVALID,109.353,VALID,0,VALID,22.7199,VALID,59,VALID,0,
2014-06-07, 01:57:04,VALID,1006.86,VALID,0,INVALID,109.361,VALID,0,VALID,22.6987,VALID,59,VALID,0,
2014-06-07, 01:58:04,VALID,1006.87,VALID,0,INVALID,109.361,VALID,0,VALID,22.7199,VALID,59,VALID,0,
2014-06-07, 01:59:04,VALID,1006.88,VALID,0,INVALID,109.376,VALID,0,VALID,22.6792,VALID,59,VALID,0,
2014-06-07, 02:00:04,VALID,1006.88,VALID,0,INVALID,109.399,VALID,0,VALID,22.6809,VALID,59,VALID,0,
2014-06-07, 02:01:04,VALID,1006.89,VALID,0,INVALID,109.414,VALID,0,VALID,22.6614,VALID,59,VALID,0,
2014-06-07, 02:02:04,VALID,1006.9,VALID,0,INVALID,109.422,VALID,0,VALID,22.642,VALID,59,VALID,0,
2014-06-07, 02:03:04,VALID,1006.88,VALID,0,INVALID,109.43,VALID,0,VALID,22.6225,VALID,59,VALID,0,
2014-06-07, 02:04:04,VALID,1006.88,VALID,0,INVALID,109.475,VALID,0,VALID,22.603,VALID,59,VALID,0,
2014-06-07, 02:05:04,VALID,1006.88,VALID,0,INVALID,109.498,VALID,0,VALID,22.5852,VALID,59,VALID,0,
2014-06-07, 02:06:04,VALID,1006.87,VALID,0,INVALID,109.529,VALID,0,VALID,22.5658,VALID,59,VALID,0,
2014-06-07, 02:07:04,VALID,1006.87,VALID,0,INVALID,109.506,VALID,0,VALID,22.5446,VALID,59,VALID,0,
2014-06-07, 02:08:04,VALID,1006.87,VALID,0,INVALID,109.513,VALID,0,VALID,22.5463,VALID,59,VALID,0,
2014-06-07, 02:09:04,VALID,1006.88,VALID,0,INVALID,109.475,VALID,0,VALID,22.5446,VALID,59,VALID,0,
2014-06-07, 02:10:04,VALID,1006.89,VALID,0,INVALID,109.506,VALID,0,VALID,22.5251,VALID,59,VALID,0,
2014-06-07, 02:11:04,VALID,1006.87,VALID,0,INVALID,109.498,VALID,0,VALID,22.5251,VALID,59,VALID,0,
2014-06-07, 02:12:04,VALID,1006.86,VALID,0,INVALID,109.506,VALID,0,VALID,22.5056,VALID,59,VALID,0,
2014-06-07, 02:13:04,VALID,1006.83,VALID,0,INVALID,109.483,VALID,0,VALID,22.5056,VALID,59,VALID,0,
2014-06-07, 02:14:04,VALID,1006.84,VALID,0,INVALID,109.491,VALID,0,VALID,22.5056,VALID,59,VALID,0,
2014-06-07, 02:15:04,VALID,1006.8,VALID,0,INVALID,109.483,VALID,0,VALID,22.5251,VALID,59,VALID,0,
2014-06-07, 02:16:04,VALID,1006.78,VALID,0,INVALID,109.437,VALID,0,VALID,22.5251,VALID,59,VALID,0,
2014-06-07, 02:17:04,VALID,1006.76,VALID,0,INVALID,109.407,VALID,0,VALID,22.5251,VALID,59,VALID,0,
2014-06-07, 02:18:04,VALID,1006.79,VALID,0,INVALID,109.399,VALID,0,VALID,22.5658,VALID,59,VALID,0,
2014-06-07, 02:19:04,VALID,1006.75,VALID,0,INVALID,109.376,VALID,0,VALID,22.564,VALID,59,VALID,0,
2014-06-07, 02:20:04,VALID,1006.75,VALID,0,INVALID,109.338,VALID,0,VALID,22.5835,VALID,59,VALID,0,
2014-06-07, 02:21:04,VALID,1006.77,VALID,0,INVALID,109.369,VALID,0,VALID,22.5852,VALID,59,VALID,0,
2014-06-07, 02:22:04,VALID,1006.73,VALID,0,INVALID,109.407,VALID,0,VALID,22.5835,VALID,59,VALID,0,
2014-06-07, 02:23:04,VALID,1006.73,VALID,0,INVALID,109.422,VALID,0,VALID,22.564,VALID,59,VALID,0,
2014-06-07, 02:24:04,VALID,1006.75,VALID,0,INVALID,109.422,VALID,0,VALID,22.5446,VALID,59,VALID,0,
2014-06-07, 02:25:04,VALID,1006.76,VALID,0,INVALID,109.46,VALID,0,VALID,22.5056,VALID,59,VALID,0,
2014-06-07, 02:26:04,VALID,1006.74,VALID,0,INVALID,109.452,VALID,0,VALID,22.5073,VALID,59,VALID,0,
2014-06-07, 02:27:04,VALID,1006.76,VALID,0,INVALID,109.468,VALID,0,VALID,22.4878,VALID,59,VALID,0,
2014-06-07, 02:28:04,VALID,1006.74,VALID,0,INVALID,109.498,VALID,0,VALID,22.4472,VALID,59,VALID,0,
2014-06-07, 02:29:04,VALID,1006.75,VALID,0,INVALID,109.475,VALID,0.112112,VALID,22.4472,VALID,59,VALID,0,
2014-06-07, 02:30:04,VALID,1006.73,VALID,0,INVALID,109.468,VALID,0,VALID,22.4472,VALID,59,VALID,0,
2014-06-07, 02:31:04,VALID,1006.74,VALID,0,INVALID,109.452,VALID,0,VALID,22.4667,VALID,59,VALID,0,
2014-06-07, 02:32:04,VALID,1006.72,VALID,0,INVALID,109.445,VALID,0.112112,VALID,22.4861,VALID,59,VALID,0,
2014-06-07, 02:33:04,VALID,1006.69,VALID,0,INVALID,109.445,VALID,0,VALID,22.4277,VALID,59,VALID,0,
2014-06-07, 02:34:04,VALID,1006.7,VALID,0,INVALID,109.491,VALID,0,VALID,22.4277,VALID,59,VALID,0,
2014-06-07, 02:35:04,VALID,1006.71,VALID,0,INVALID,109.43,VALID,0,VALID,22.4472,VALID,59,VALID,0,
2014-06-07, 02:36:04,VALID,1006.67,VALID,0,INVALID,109.445,VALID,0,VALID,22.4472,VALID,59,VALID,0,
2014-06-07, 02:37:04,VALID,1006.67,VALID,0,INVALID,109.399,VALID,0,VALID,22.4472,VALID,59,VALID,0,
2014-06-07, 02:38:04,VALID,1006.69,VALID,0,INVALID,109.414,VALID,0,VALID,22.4472,VALID,59,VALID,0,
2014-06-07, 02:39:04,VALID,1006.7,VALID,0,INVALID,109.391,VALID,0,VALID,22.4667,VALID,59,VALID,0,
2014-06-07, 02:40:04,VALID,1006.7,VALID,0,INVALID,109.414,VALID,0,VALID,22.4472,VALID,59,VALID,0,
2014-06-07, 02:41:04,VALID,1006.73,VALID,0,INVALID,109.43,VALID,0,VALID,22.4472,VALID,59,VALID,0,
2014-06-07, 02:42:04,VALID,1006.74,VALID,0,INVALID,109.384,VALID,0,VALID,22.4472,VALID,59,VALID,0,
2014-06-07, 02:43:04,VALID,1006.77,VALID,0,INVALID,109.399,VALID,0,VALID,22.4472,VALID,59,VALID,0,
2014-06-07, 02:44:04,VALID,1006.74,VALID,0,INVALID,109.399,VALID,0,VALID,22.4472,VALID,59,VALID,0,
2014-06-07, 02:45:04,VALID,1006.76,VALID,0,INVALID,109.399,VALID,0,VALID,22.4472,VALID,59,VALID,0,
2014-06-07, 02:46:04,VALID,1006.75,VALID,0,INVALID,109.361,VALID,0,VALID,22.4667,VALID,59,VALID,0,
2014-06-07, 02:47:04,VALID,1006.75,VALID,0,INVALID,109.353,VALID,0,VALID,22.4861,VALID,59,VALID,0,
2014-06-07, 02:48:04,VALID,1006.77,VALID,0,INVALID,109.323,VALID,0,VALID,22.4861,VALID,59,VALID,0,
2014-06-07, 02:49:04,VALID,1006.77,VALID,0,INVALID,109.315,VALID,0,VALID,22.4861,VALID,59,VALID,0,
2014-06-07, 02:50:04,VALID,1006.77,VALID,0,INVALID,109.376,VALID,0,VALID,22.4667,VALID,59,VALID,0,
2014-06-07, 02:51:04,VALID,1006.8,VALID,0,INVALID,109.369,VALID,0,VALID,22.4472,VALID,59,VALID,0,
2014-06-07, 02:52:04,VALID,1006.83,VALID,0,INVALID,109.384,VALID,0,VALID,22.4667,VALID,59,VALID,0,
2014-06-07, 02:53:04,VALID,1006.84,VALID,0,INVALID,109.376,VALID,0,VALID,22.4667,VALID,59,VALID,0,
2014-06-07, 02:54:04,VALID,1006.86,VALID,0,INVALID,109.384,VALID,0,VALID,22.4667,VALID,59,VALID,0,
2014-06-07, 02:55:04,VALID,1006.86,VALID,0,INVALID,109.338,VALID,0.112112,VALID,22.4667,VALID,59,VALID,0,
2014-06-07, 02:56:04,VALID,1006.84,VALID,0,INVALID,109.353,VALID,0.112112,VALID,22.465,VALID,59,VALID,0,
2014-06-07, 02:57:04,VALID,1006.85,VALID,0,INVALID,109.33,VALID,0.112112,VALID,22.4861,VALID,59,VALID,0,
2014-06-07, 02:58:04,VALID,1006.85,VALID,0,INVALID,109.323,VALID,0,VALID,22.5056,VALID,59,VALID,0,
2014-06-07, 02:59:04,VALID,1006.82,VALID,0,INVALID,109.323,VALID,0.112112,VALID,22.5251,VALID,59,VALID,0,
2014-06-07, 03:00:04,VALID,1006.85,VALID,0,INVALID,109.315,VALID,0.112112,VALID,22.5234,VALID,59,VALID,0,
2014-06-07, 03:01:04,VALID,1006.81,VALID,0,INVALID,109.285,VALID,0.112112,VALID,22.564,VALID,59,VALID,0,
2014-06-07, 03:02:04,VALID,1006.82,VALID,0,INVALID,109.247,VALID,0.112112,VALID,22.5835,VALID,59,VALID,0,
2014-06-07, 03:03:04,VALID,1006.78,VALID,0,INVALID,109.254,VALID,0,VALID,22.603,VALID,59,VALID,0,
2014-06-07, 03:04:04,VALID,1006.77,VALID,0,INVALID,109.201,VALID,0.112112,VALID,22.6013,VALID,59,VALID,0,
2014-06-07, 03:05:04,VALID,1006.73,VALID,0,INVALID,109.239,VALID,0.112112,VALID,22.642,VALID,59,VALID,0,
2014-06-07, 03:06:04,VALID,1006.72,VALID,0,INVALID,109.247,VALID,0.112112,VALID,22.6225,VALID,59,VALID,0,
2014-06-07, 03:07:04,VALID,1006.72,VALID,0,INVALID,109.277,VALID,0.112112,VALID,22.642,VALID,59,VALID,0,
2014-06-07, 03:08:04,VALID,1006.69,VALID,0,INVALID,109.247,VALID,0.112112,VALID,22.642,VALID,59,VALID,0,
2014-06-07, 03:09:04,VALID,1006.69,VALID,0,INVALID,109.231,VALID,0,VALID,22.642,VALID,59,VALID,0,
2014-06-07, 03:10:04,VALID,1006.67,VALID,0,INVALID,109.262,VALID,0,VALID,22.6614,VALID,59,VALID,0,
2014-06-07, 03:11:04,VALID,1006.68,VALID,0,INVALID,109.262,VALID,0.112112,VALID,22.642,VALID,59,VALID,0,
2014-06-07, 03:12:04,VALID,1006.69,VALID,0,INVALID,109.277,VALID,0.112112,VALID,22.6225,VALID,59,VALID,0,
2014-06-07, 03:13:04,VALID,1006.68,VALID,0,INVALID,109.3,VALID,0.112112,VALID,22.6225,VALID,59,VALID,0,
2014-06-07, 03:14:04,VALID,1006.69,VALID,0,INVALID,109.315,VALID,0.112112,VALID,22.6225,VALID,59,VALID,0,
2014-06-07, 03:15:04,VALID,1006.66,VALID,0,INVALID,109.353,VALID,0.112112,VALID,22.5835,VALID,59,VALID,0,
2014-06-07, 03:16:04,VALID,1006.66,VALID,0,INVALID,109.315,VALID,0,VALID,22.5835,VALID,59,VALID,0,
2014-06-07, 03:17:04,VALID,1006.66,VALID,0,INVALID,109.338,VALID,0.112112,VALID,22.564,VALID,59,VALID,0,
2014-06-07, 03:18:04,VALID,1006.61,VALID,0,INVALID,109.323,VALID,0,VALID,22.564,VALID,59,VALID,0,
2014-06-07, 03:19:04,VALID,1006.61,VALID,0,INVALID,109.292,VALID,0.112112,VALID,22.564,VALID,59,VALID,0,
2014-06-07, 03:20:04,VALID,1006.59,VALID,0,INVALID,109.292,VALID,0.112112,VALID,22.603,VALID,59,VALID,0,
2014-06-07, 03:21:04,VALID,1006.59,VALID,0,INVALID,109.277,VALID,0,VALID,22.5835,VALID,59,VALID,0,
2014-06-07, 03:22:04,VALID,1006.57,VALID,0,INVALID,109.292,VALID,0.112112,VALID,22.5623,VALID,59,VALID,0,
2014-06-07, 03:23:04,VALID,1006.6,VALID,0,INVALID,109.308,VALID,0.112112,VALID,22.564,VALID,59,VALID,0,
2014-06-07, 03:24:04,VALID,1006.61,VALID,0,INVALID,109.292,VALID,0,VALID,22.564,VALID,59,VALID,0,
2014-06-07, 03:25:04,VALID,1006.62,VALID,0,INVALID,109.346,VALID,0,VALID,22.5446,VALID,59,VALID,0,
2014-06-07, 03:26:04,VALID,1006.64,VALID,0,INVALID,109.353,VALID,0,VALID,22.5251,VALID,59,VALID,0,
2014-06-07, 03:27:04,VALID,1006.67,VALID,0,INVALID,109.361,VALID,0,VALID,22.5251,VALID,59,VALID,0,
2014-06-07, 03:28:04,VALID,1006.67,VALID,0,INVALID,109.353,VALID,0,VALID,22.5251,VALID,59,VALID,0,
2014-06-07, 03:29:04,VALID,1006.67,VALID,0,INVALID,109.33,VALID,0,VALID,22.5446,VALID,59,VALID,0,
2014-06-07, 03:30:04,VALID,1006.7,VALID,0,INVALID,109.285,VALID,0.112112,VALID,22.5835,VALID,59,VALID,0,
2014-06-07, 03:31:04,VALID,1006.69,VALID,0,INVALID,109.285,VALID,0.112112,VALID,22.5835,VALID,59,VALID,0,
2014-06-07, 03:32:04,VALID,1006.75,VALID,0,INVALID,109.33,VALID,0,VALID,22.5852,VALID,59,VALID,0,
2014-06-07, 03:33:04,VALID,1006.72,VALID,0,INVALID,109.323,VALID,0.112112,VALID,22.5446,VALID,59,VALID,0,
2014-06-07, 03:34:04,VALID,1006.72,VALID,0,INVALID,109.346,VALID,0,VALID,22.5251,VALID,59,VALID,0,
2014-06-07, 03:35:04,VALID,1006.75,VALID,0,INVALID,109.338,VALID,0,VALID,22.564,VALID,59,VALID,0,
2014-06-07, 03:36:04,VALID,1006.76,VALID,0,INVALID,109.269,VALID,0,VALID,22.5835,VALID,59,VALID,0,
2014-06-07, 03:37:04,VALID,1006.74,VALID,0,INVALID,109.277,VALID,0,VALID,22.603,VALID,59,VALID,0,
2014-06-07, 03:38:04,VALID,1006.75,VALID,0,INVALID,109.224,VALID,0,VALID,22.6826,VALID,59,VALID,0,
2014-06-07, 03:39:04,VALID,1006.73,VALID,0,INVALID,109.208,VALID,0,VALID,22.6826,VALID,59,VALID,0,
2014-06-07, 03:40:04,VALID,1006.77,VALID,0,INVALID,109.231,VALID,0,VALID,22.642,VALID,59,VALID,0,
2014-06-07, 03:41:04,VALID,1006.75,VALID,0,INVALID,109.285,VALID,0,VALID,22.603,VALID,59,VALID,0,
2014-06-07, 03:42:04,VALID,1006.79,VALID,0,INVALID,109.292,VALID,0,VALID,22.5835,VALID,59,VALID,0,
2014-06-07, 03:43:04,VALID,1006.78,VALID,0,INVALID,109.308,VALID,0,VALID,22.564,VALID,59,VALID,0,
2014-06-07, 03:44:04,VALID,1006.8,VALID,0,INVALID,109.315,VALID,0.112112,VALID,22.564,VALID,59,VALID,0,
2014-06-07, 03:45:04,VALID,1006.79,VALID,0,INVALID,109.308,VALID,0,VALID,22.5446,VALID,59,VALID,0,
2014-06-07, 03:46:04,VALID,1006.81,VALID,0,INVALID,109.323,VALID,0,VALID,22.5463,VALID,59,VALID,0,
2014-06-07, 03:47:04,VALID,1006.81,VALID,0,INVALID,109.353,VALID,0,VALID,22.5251,VALID,59,VALID,0,
2014-06-07, 03:48:04,VALID,1006.81,VALID,0,INVALID,109.338,VALID,0,VALID,22.5268,VALID,59,VALID,0,
2014-06-07, 03:49:04,VALID,1006.87,VALID,0,INVALID,109.33,VALID,0,VALID,22.5251,VALID,59,VALID,0,
2014-06-07, 03:50:04,VALID,1006.89,VALID,0,INVALID,109.346,VALID,0,VALID,22.5056,VALID,59,VALID,0,
2014-06-07, 03:51:04,VALID,1006.88,VALID,0,INVALID,109.33,VALID,0,VALID,22.5056,VALID,59,VALID,0,
2014-06-07, 03:52:04,VALID,1006.9,VALID,0,INVALID,109.308,VALID,0,VALID,22.5268,VALID,59,VALID,0,
2014-06-07, 03:53:04,VALID,1006.91,VALID,0,INVALID,109.33,VALID,0,VALID,22.5056,VALID,59,VALID,0,
2014-06-07, 03:54:04,VALID,1006.9,VALID,0,INVALID,109.308,VALID,0,VALID,22.5251,VALID,59,VALID,0,